Wind_Speed
14 12 11 9 8 5 2 7 10 12 16 15 18 19 14 11 14 18 21 19 19 20 17 14 16 19 22 25 27 24 22 24 24 22 19 18 18 13 10 11 11 11 11 14 19 21 21 19 16 14 13 13 13 14 15 17 18 18 19 20 21 22 23 20 16 16 16 16 15 13 13 12 11 10 9 10 11 11 11 11 12 13 13 13 13 14
16 14 12 11 11 9 7 12 15 13 16 22 24 19 13 11 11 14 18 19 16 14 17 20 17 16 21 25 27 26 23 21 21 21 21 22 22 16 12 11 10 10 11 14 17 19 19 18 17 14 13 14 14 15 16 17 18 19 20 21 22 23 23 20 17 17 17 17 17 15 14 12 11 10 10 9 10 11 11 11 12 13 13 13 13 14
16 12 11 13 15 15 14 16 16 15 19 23 22 17 13 13 13 14 16 18 17 17 22 23 20 21 23 25 29 28 20 17 19 18 19 21 24 21 16 14 10 8 9 12 15 17 18 17 15 14 14 15 16 17 17 18 18 20 21 22 23 23 23 22 19 19 19 19 19 18 16 13 11 10 9 9 9 10 11 11 12 13 13 13 13 14
15 10 8 10 12 14 13 13 13 14 17 20 18 15 14 14 15 14 15 19 24 28 27 20 20 24 22 21 26 29 24 21 22 22 18 18 22 24 20 17 12 8 8 10 13 15 16 16 14 13 13 15 16 18 18 18 19 21 22 22 23 22 22 22 21 21 20 21 21 20 17 14 12 11 10 9 10 11 12 12 13 13 13 13 13 13
15 12 10 9 12 16 17 17 17 16 18 18 15 15 15 15 16 15 16 20 21 22 24 22 21 21 21 19 21 28 30 26 25 25 22 20 20 23 22 18 15 10 8 9 11 13 14 14 13 13 13 15 17 19 19 19 20 20 21 22 22 22 23 23 23 22 22 22 23 21 18 15 13 11 11 11 11 12 12 13 13 13 13 13 13 13
15 14 14 15 16 20 22 21 18 17 19 18 15 14 15 17 18 16 17 21 20 18 22 25 23 21 22 21 20 28 33 29 25 23 23 23 21 21 23 22 18 11 9 11 11 10 12 12 12 12 12 15 17 19 19 19 20 20 20 21 22 23 24 24 25 25 23 23 23 20 18 17 14 12 11 12 13 13 14 14 13 12 13 13 13 13
15 14 16 17 18 20 19 18 18 18 18 17 15 13 14 16 17 15 16 21 22 18 19 22 22 22 23 20 20 29 33 30 26 22 20 22 24 23 23 24 21 14 10 11 12 12 10 10 11 11 12 14 17 19 19 19 19 19 20 21 22 23 24 26 26 27 25 24 22 19 17 17 15 12 11 12 13 14 14 14 13 12 12 12 12 12
15 16 17 17 18 19 17 16 19 20 18 18 16 16 17 17 15 16 20 25 24 19 18 18 18 21 24 22 22 27 29 27 27 26 24 23 23 23 21 24 24 18 15 11 9 13 12 8 9 10 11 13 16 19 19 18 19 20 20 21 22 23 25 26 27 28 27 25 22 19 17 16 14 12 12 12 14 15 14 14 13 13 12 12 12 13
16 15 16 18 19 18 17 17 19 20 20 19 16 17 20 19 18 20 20 21 21 20 19 17 16 21 24 23 23 25 25 25 25 24 28 28 21 18 19 21 20 18 18 16 9 11 13 11 10 9 11 12 15 19 18 18 19 20 21 21 22 23 25 26 27 28 29 26 22 19 17 15 13 12 13 14 15 16 15 13 13 13 13 12 13 13
13 13 17 19 18 17 18 18 19 21 21 20 18 19 21 20 19 19 20 20 20 22 23 19 16 20 22 21 22 22 21 22 22 20 26 32 25 19 19 19 16 14 16 15 9 10 12 13 12 10 10 12 15 18 17 18 20 20 21 22 22 24 25 27 28 28 30 27 21 18 17 15 14 15 16 16 17 17 16 14 13 13 13 13 13 13
14 19 22 18 14 16 18 18 20 21 20 19 19 20 19 19 19 19 19 21 21 23 23 19 17 19 20 21 20 19 21 21 19 22 30 33 30 23 18 17 15 13 13 12 10 11 13 13 14 12 10 12 14 16 16 17 20 21 22 23 23 24 25 27 28 28 30 27 20 16 16 16 15 16 18 18 18 18 17 16 14 14 14 14 14 14
17 23 25 22 18 19 20 20 21 21 20 19 18 19 20 18 18 19 19 20 22 22 21 17 15 15 18 20 17 17 23 18 14 23 30 28 28 25 17 14 14 13 13 14 11 12 14 15 16 14 12 13 14 15 16 17 20 21 22 23 24 25 26 27 28 28 30 27 19 16 17 17 17 18 19 18 19 19 18 16 14 14 14 14 14 14
21 23 22 22 22 22 22 22 23 23 21 21 20 18 20 20 17 16 16 17 20 20 19 17 15 16 18 15 13 15 17 15 17 22 21 25 31 32 19 10 12 13 13 12 11 12 16 16 17 16 15 15 16 17 16 17 20 22 23 24 25 26 26 28 28 28 30 26 18 16 18 18 18 18 19 18 18 19 19 17 15 14 14 15 15 15
19 21 22 23 23 26 27 24 23 22 18 19 21 19 18 18 16 16 14 14 15 15 14 15 13 15 15 11 10 12 13 19 25 20 18 25 30 31 19 5 6 9 9 10 10 12 16 18 18 16 15 17 18 19 17 18 21 23 24 25 26 27 27 28 29 29 29 25 19 17 18 19 18 18 19 18 18 19 19 18 17 15 15 15 15 15
14 12 17 19 18 24 28 26 21 17 15 13 14 18 18 16 15 16 16 15 15 14 12 12 12 14 15 14 12 12 18 25 24 19 23 26 22 19 14 6 8 9 9 10 12 14 17 20 18 13 14 18 20 21 19 19 23 25 26 27 27 28 28 29 30 30 30 27 21 18 19 19 18 18 18 19 19 19 19 19 17 16 16 16 16 16
16 13 14 18 19 20 22 25 25 18 15 15 15 16 18 17 17 18 18 18 18 19 18 14 14 15 13 11 10 11 19 25 24 22 25 21 11 7 6 7 8 9 9 11 14 15 18 19 18 15 17 19 21 21 20 21 24 26 27 28 28 29 29 30 31 31 31 29 24 21 20 20 19 18 18 18 19 19 19 19 18 17 16 16 17 16
14 11 13 16 20 25 24 25 30 25 17 16 15 14 16 17 17 16 16 18 16 17 18 14 12 10 7 11 15 18 25 25 21 19 18 13 8 6 5 5 7 9 11 12 15 17 18 19 20 20 20 19 20 22 22 24 26 27 29 30 30 31 31 31 32 32 32 31 27 23 21 21 21 19 18 18 19 19 19 19 18 17 17 17 17 17
16 13 13 14 13 20 26 26 26 24 17 15 13 10 13 16 14 14 15 15 15 14 14 12 10 9 9 14 19 24 27 19 14 15 14 11 10 8 8 10 10 11 13 15 17 18 18 18 19 20 20 20 21 23 25 27 28 29 31 32 32 32 32 33 33 33 33 32 29 25 23 23 22 20 18 18 19 20 19 18 18 18 17 17 17 17
20 19 16 14 12 14 25 26 19 17 15 14 15 14 15 14 11 13 14 12 10 11 12 11 11 12 12 13 18 23 20 12 13 17 14 12 13 10 10 13 13 14 15 16 18 18 17 17 17 19 21 21 23 25 27 29 30 31 32 33 34 35 34 34 34 33 33 33 31 27 24 23 22 20 19 18 19 20 19 18 18 18 17 17 17 17
22 24 18 12 13 12 16 21 15 12 12 10 14 20 20 17 15 13 12 11 9 10 12 11 12 17 18 18 23 26 23 18 19 18 13 13 13 11 11 13 14 16 16 16 17 16 16 17 17 19 21 23 24 25 27 29 31 32 33 35 36 36 36 36 35 34 33 33 33 28 24 22 20 20 19 18 19 20 19 19 18 18 18 17 17 17
20 22 15 11 12 9 12 19 12 3 6 8 10 16 18 17 16 15 14 14 12 12 12 10 13 20 20 20 26 29 27 25 21 16 15 15 12 10 12 14 14 15 16 16 17 18 20 21 21 22 24 25 27 27 28 30 32 33 35 36 37 39 40 37 35 34 34 34 32 27 23 21 18 18 18 17 19 20 19 19 19 18 18 17 17 17
19 17 12 12 12 9 15 20 8 6 4 10 15 18 16 13 15 16 13 12 13 14 12 11 17 24 23 24 27 25 24 24 20 16 16 14 11 11 13 13 14 16 17 19 20 21 23 24 25 26 27 28 28 29 30 31 33 36 37 38 39 40 39 36 34 34 34 35 32 26 23 21 18 16 17 17 18 19 20 19 19 19 18 17 16 16
17 19 17 15 13 6 9 12 9 5 10 15 13 13 14 11 13 15 13 11 10 12 12 14 23 28 27 24 24 24 24 23 20 16 14 12 10 12 13 14 16 18 19 21 22 23 25 27 27 28 28 29 29 30 31 33 36 38 38 39 39 38 38 36 35 34 34 35 31 23 19 19 18 17 17 17 18 19 19 19 19 19 17 16 16 16
16 19 20 19 18 15 13 13 17 15 10 18 19 15 12 11 12 13 14 13 12 13 13 16 23 29 29 28 27 26 24 20 17 14 13 14 14 14 16 17 18 19 20 22 23 25 27 28 29 29 30 30 30 30 31 33 36 38 39 40 40 40 39 34 29 28 30 30 24 18 17 19 18 17 17 18 18 19 19 19 19 18 16 15 16 17
15 14 17 19 18 15 11 8 16 16 10 9 13 12 11 11 12 13 13 13 15 19 17 17 25 30 30 31 30 26 24 22 20 17 14 15 17 18 19 20 20 21 22 23 25 27 29 30 30 30 30 30 29 29 30 32 34 36 37 37 39 40 37 30 27 26 25 22 18 17 19 19 17 17 17 18 19 18 18 18 19 18 16 16 16 17
15 12 17 19 16 11 9 10 14 11 9 7 2 6 13 12 11 14 14 15 15 18 17 18 26 31 32 32 30 25 23 22 20 18 17 20 22 23 23 22 22 23 23 24 26 28 30 30 30 29 28 27 26 27 28 30 33 35 35 34 37 41 37 27 24 24 19 16 16 17 19 18 16 17 17 18 18 18 18 18 18 17 16 16 17 18
17 17 17 17 18 13 10 13 16 12 6 8 6 5 10 12 13 14 15 16 15 13 17 21 28 33 35 34 30 24 21 21 20 20 22 25 27 27 25 23 22 22 22 23 25 27 27 27 25 25 25 24 24 25 27 31 36 38 36 31 30 35 33 23 19 19 16 16 16 17 18 17 17 18 17 18 18 17 18 18 17 16 16 16 17 18
15 17 16 14 17 15 10 9 11 7 6 7 6 5 10 9 13 14 12 14 15 13 18 26 32 35 35 33 31 27 25 24 24 25 25 27 27 26 24 21 20 19 20 21 22 22 21 22 22 22 22 22 23 25 28 34 36 34 32 29 26 27 26 22 20 19 17 17 16 16 18 17 17 17 17 18 17 18 19 18 16 16 16 17 17 18
16 16 15 14 14 14 12 8 7 8 8 10 7 7 10 9 9 11 10 11 12 12 20 30 34 34 34 33 30 27 25 25 25 25 26 26 26 24 22 20 18 17 17 17 17 17 17 19 20 20 21 21 24 26 29 34 35 29 28 29 28 28 22 18 18 18 18 18 17 18 18 17 17 17 17 17 18 18 18 17 15 15 16 17 18 18
16 15 15 15 13 15 15 10 10 13 11 10 10 9 9 11 10 10 10 10 10 14 24 31 31 30 31 30 26 23 24 26 25 25 26 27 26 25 23 20 17 15 14 12 13 15 16 18 19 19 21 22 25 27 29 33 32 28 28 28 27 26 21 18 17 17 18 18 17 18 18 17 16 16 16 17 18 18 17 16 15 15 16 17 18 18
15 12 13 14 11 13 14 11 14 17 12 11 14 11 8 12 14 14 14 15 18 23 29 32 31 30 28 25 23 24 25 25 25 25 26 27 28 26 23 18 12 10 10 10 13 15 16 17 18 20 21 23 25 27 29 31 30 29 30 27 24 22 19 17 17 16 16 17 17 17 17 16 15 15 16 17 18 17 16 15 15 16 17 17 17 17
14 13 14 14 11 12 14 13 15 17 13 13 14 13 14 15 15 16 18 19 21 26 30 30 26 25 25 24 24 24 24 24 23 23 24 25 26 24 19 13 8 7 8 10 13 15 16 18 19 20 22 23 25 26 27 28 29 30 28 24 20 18 16 15 16 16 16 16 15 16 15 14 14 15 16 17 17 16 15 15 16 17 17 17 17 16
15 15 15 13 13 12 9 12 17 16 14 15 15 17 19 14 10 12 13 16 20 24 24 20 15 16 20 21 22 22 21 21 22 21 21 22 21 18 14 11 7 6 9 11 13 15 17 18 19 20 22 24 24 25 24 25 27 26 23 20 18 17 15 14 15 14 14 14 14 14 14 13 14 14 15 15 15 15 15 16 17 17 17 16 16 15
18 18 15 12 11 9 8 13 18 17 16 17 17 16 17 13 9 8 9 15 21 21 18 14 12 15 20 19 19 19 18 19 19 18 18 19 18 16 15 14 11 9 11 12 14 15 17 18 19 20 22 23 23 23 22 23 23 20 18 17 17 16 15 12 11 11 12 12 12 13 13 13 14 14 15 14 14 14 15 16 17 17 16 16 15 15
20 18 15 14 13 11 13 16 17 16 17 17 11 8 10 13 14 11 11 16 20 21 21 17 13 16 20 19 18 18 17 17 18 17 17 18 18 17 16 15 13 12 13 13 14 15 16 18 18 19 21 22 21 21 21 20 19 18 18 16 14 13 10 6 6 8 10 11 12 12 13 13 13 14 13 13 14 15 15 16 17 16 16 15 15 14
20 17 15 16 15 15 15 14 15 18 18 14 9 8 9 10 9 11 14 15 15 18 21 18 14 15 18 18 17 16 15 16 17 17 17 16 16 15 14 13 12 11 12 13 13 14 16 18 18 19 20 20 19 20 19 19 18 17 17 15 12 10 8 5 6 9 10 10 11 12 12 13 13 13 13 13 14 15 15 16 16 16 15 15 14 14
22 21 18 18 18 17 15 14 16 20 20 13 10 13 14 10 9 12 14 14 15 17 16 12 12 16 17 17 17 17 16 17 17 18 18 17 16 14 12 13 13 10 9 12 13 14 15 17 18 18 18 18 18 18 18 18 17 15 14 12 11 9 8 7 8 9 9 10 11 12 12 13 13 13 13 13 14 15 16 16 16 15 15 14 14 13
24 23 20 18 18 17 17 17 17 21 21 15 12 12 12 12 11 12 15 17 17 17 15 12 12 16 17 18 19 20 21 20 19 19 20 20 19 15 13 15 16 11 9 11 13 14 16 17 17 17 17 17 17 16 16 16 15 13 12 11 10 10 9 9 9 9 10 10 11 12 13 13 13 13 13 14 14 15 15 15 15 14 14 14 14 13
25 24 23 21 19 18 19 18 17 20 22 17 11 9 10 13 14 13 15 17 15 15 17 16 15 16 16 17 18 21 21 20 19 19 19 20 20 18 17 19 17 12 10 12 14 15 16 16 16 16 16 16 15 14 14 14 13 12 11 10 10 10 9 10 10 10 10 10 11 12 12 12 13 13 14 14 15 15 15 14 14 14 14 14 14 13
25 25 26 25 22 20 19 16 15 19 21 16 11 8 9 12 14 13 14 14 12 13 17 18 17 16 17 18 19 20 19 18 19 20 19 18 19 20 20 19 16 12 12 14 14 14 15 15 15 14 14 14 13 12 12 12 12 12 11 10 10 10 10 11 11 11 10 11 11 11 11 12 13 13 14 14 14 14 14 13 14 14 14 14 14 13
25 26 27 27 24 21 19 17 17 20 23 20 15 11 11 13 13 14 15 13 11 11 14 17 17 16 16 19 20 20 19 19 20 21 21 19 18 18 18 17 16 14 14 15 15 14 13 14 13 13 13 12 11 11 11 11 11 11 11 10 10 11 11 11 11 11 11 11 12 12 12 12 12 13 13 13 14 13 13 14 14 15 15 15 14 13
27 28 28 29 27 24 22 21 19 22 26 25 19 16 17 18 16 14 15 15 14 12 12 15 17 16 16 17 19 20 21 19 19 20 21 19 18 17 17 16 15 14 14 15 15 13 12 12 12 12 12 11 10 10 10 10 10 10 10 10 10 10 11 11 11 11 11 11 11 12 12 12 12 13 13 13 13 14 14 14 15 15 15 15 14 13
28 29 30 30 28 26 26 24 22 25 29 27 23 23 23 22 18 15 15 17 17 15 13 15 15 15 15 17 18 20 21 20 19 19 20 20 17 16 15 14 13 14 14 14 13 12 10 10 10 11 10 10 10 10 9 9 10 10 10 10 9 10 10 10 11 11 10 11 11 11 12 12 13 13 13 14 14 14 15 15 15 15 15 15 14 13
27 29 29 28 27 26 27 28 28 29 29 25 23 24 23 20 18 16 16 18 19 18 19 18 16 14 15 18 18 18 19 19 19 20 20 20 19 17 16 14 13 13 13 11 11 11 10 10 9 9 9 9 9 10 10 9 10 10 10 10 9 9 9 10 10 10 10 11 11 12 13 13 14 14 15 15 15 15 15 15 15 15 15 14 13 12
27 29 29 29 30 29 28 30 31 29 27 25 24 23 22 21 20 20 20 19 17 19 22 24 21 17 16 18 20 19 19 18 18 19 20 20 20 20 18 15 13 12 11 9 8 10 10 10 8 7 8 9 9 9 9 9 10 10 10 9 9 8 8 8 9 10 10 11 11 12 13 13 14 14 14 15 15 14 14 14 14 14 14 13 13 12
29 31 31 30 31 31 30 30 29 28 25 24 24 23 23 24 24 23 21 18 17 20 23 25 25 21 17 19 22 22 22 21 19 19 19 19 19 19 17 15 13 11 10 8 8 8 9 9 8 7 7 8 9 8 9 10 10 9 8 7 6 6 6 7 8 9 10 10 10 11 12 12 13 13 13 13 13 13 13 13 13 13 13 13 13 12
32 32 31 30 32 33 32 29 29 29 26 22 23 24 23 25 25 22 18 15 16 20 23 23 25 24 21 22 24 24 25 23 21 18 17 17 17 16 15 14 12 10 9 8 8 8 7 7 7 6 6 7 8 8 9 9 8 6 5 4 5 5 6 7 7 8 9 9 9 10 10 11 11 11 11 11 11 12 12 12 12 13 13 13 13 13
33 34 34 32 29 28 30 30 29 27 22 20 22 24 24 26 26 21 19 18 17 18 21 22 23 25 24 24 26 26 25 24 22 20 18 16 15 14 13 12 11 9 9 8 8 7 5 5 5 6 6 5 6 7 7 6 5 4 4 5 5 6 7 7 8 8 8 8 9 9 9 10 10 10 11 11 11 12 12 12 12 13 13 13 13 13
28 30 31 32 29 27 29 31 27 23 20 21 24 25 25 26 23 19 20 22 18 17 20 21 21 24 24 23 24 26 24 21 21 21 19 17 15 13 12 11 10 9 8 7 6 6 5 4 4 5 5 5 5 6 5 3 3 4 6 6 7 7 8 8 8 8 8 9 9 9 9 10 10 10 11 11 12 12 12 12 12 12 13 13 13 12
25 24 25 28 28 26 29 31 27 24 24 25 26 26 25 24 21 19 19 20 18 18 21 21 21 22 22 22 23 24 22 20 20 20 17 15 13 11 11 11 11 9 8 7 6 5 4 4 4 4 4 4 4 3 2 2 4 5 6 7 7 8 9 9 8 8 9 9 9 9 9 9 10 10 11 11 11 12 11 12 12 12 12 12 12 12
28 25 24 25 24 24 28 32 29 25 24 25 25 25 23 21 22 21 18 18 19 18 19 21 22 22 21 21 23 23 20 18 18 18 15 12 11 9 9 10 10 9 7 6 5 4 4 4 5 4 4 3 2 2 1 2 4 5 6 7 7 8 8 8 8 8 8 9 9 9 9 9 9 9 10 10 10 11 11 11 12 12 12 12 12 12
Wind_Direction
221 220 216 224 227 214 243 258 267 313 324 298 277 282 289 295 309 313 313 317 319 328 333 316 312 319 317 315 314 317 323 321 317 316 315 314 315 319 329 339 3 24 31 39 44 43 38 31 22 18 15 12 12 15 16 15 12 11 12 10 9 9 8 10 14 13 8 3 356 348 344 338 328 322 320 328 335 334 328 322 317 314 318 322 324 323
224 214 212 227 227 217 237 246 248 270 269 255 261 275 283 288 297 299 303 309 313 317 313 307 310 319 314 308 310 313 313 324 333 323 313 312 309 316 339 346 352 11 21 33 42 44 39 30 22 15 6 3 6 11 16 16 11 10 11 11 11 11 10 11 10 8 7 2 355 345 338 334 329 325 320 321 327 327 324 320 316 314 316 320 323 322
234 219 209 226 230 226 231 237 240 246 247 250 259 265 277 291 292 295 305 306 304 307 309 309 316 327 326 316 313 312 313 336 341 320 308 312 308 311 337 351 346 356 12 31 44 45 43 33 22 14 2 357 3 10 15 16 12 8 9 10 11 11 9 8 6 1 358 354 350 344 334 327 325 327 324 320 321 321 321 319 315 313 314 318 322 322
237 230 220 234 247 255 263 266 269 276 277 272 269 272 278 283 290 299 301 298 309 320 319 317 318 319 320 317 312 307 311 328 329 317 304 303 308 310 325 340 338 340 357 22 44 48 46 38 25 14 2 357 2 10 13 13 12 8 7 9 9 10 8 7 5 360 354 349 346 342 336 327 320 321 325 323 323 324 322 321 318 316 317 318 321 323
236 232 230 244 262 266 264 265 268 268 269 267 272 281 277 274 278 282 289 289 292 304 304 298 300 299 298 306 303 298 308 321 325 320 303 293 304 307 312 325 332 338 345 3 30 45 48 40 29 17 4 360 3 9 9 7 10 7 5 6 6 7 6 4 3 358 352 348 345 342 339 333 320 314 320 323 324 325 324 324 322 319 318 318 320 321
240 238 232 232 240 249 252 254 256 253 252 253 257 267 274 277 271 275 305 304 286 284 289 290 296 298 300 311 305 297 305 313 319 318 304 295 297 300 306 313 320 328 337 346 357 24 44 42 29 16 4 1 3 5 2 0 3 3 1 2 2 3 2 1 360 356 351 347 346 343 341 338 325 309 312 320 323 326 326 324 323 320 318 318 317 316
238 241 242 242 243 248 255 263 267 263 259 258 257 255 264 272 271 278 288 275 266 274 284 290 299 301 302 307 297 296 305 310 312 311 300 294 291 291 301 309 313 317 327 342 344 346 13 37 28 11 1 358 358 359 356 353 355 357 357 357 357 358 358 358 357 355 351 347 345 343 340 339 331 315 310 314 321 327 329 325 321 319 315 314 313 313
245 246 248 251 253 255 256 257 259 261 260 262 264 262 266 270 267 266 260 255 259 271 281 288 296 296 294 294 291 297 304 302 304 308 306 303 295 291 301 310 309 304 302 315 340 344 345 7 18 6 356 353 352 354 351 347 350 353 354 352 352 352 353 354 353 352 351 348 343 340 337 338 336 326 318 316 321 327 330 326 320 316 313 312 313 314
253 260 260 253 253 258 259 256 254 258 263 267 270 269 271 271 268 270 271 271 274 275 279 283 282 282 287 296 301 306 305 298 304 310 304 305 304 296 305 311 304 297 300 304 323 347 339 341 353 352 348 346 346 350 348 343 346 349 349 347 346 347 348 349 349 349 349 347 341 336 334 333 331 327 323 322 323 326 329 327 319 315 314 315 315 314
254 262 261 254 256 260 258 257 258 262 265 268 269 269 273 275 275 279 283 284 281 281 289 297 293 287 291 297 300 306 305 297 307 311 298 299 302 300 305 311 303 295 307 320 337 345 334 332 334 333 338 341 342 347 346 340 341 344 344 342 341 342 343 344 345 345 346 344 338 333 332 329 325 322 320 321 322 324 326 325 320 315 315 314 314 313
243 249 258 260 263 265 262 257 259 266 270 270 272 275 280 282 282 282 282 286 287 290 299 303 295 291 293 295 297 298 288 287 307 306 291 291 294 295 303 310 305 295 306 329 344 333 325 323 323 322 328 334 339 344 343 337 337 338 337 337 336 337 339 339 340 342 343 342 336 331 331 326 322 317 316 318 320 322 323 323 320 315 314 314 312 312
251 257 270 276 268 264 266 267 266 270 273 274 276 279 281 280 283 287 290 294 297 303 312 309 301 296 289 293 297 286 285 295 300 281 282 297 303 301 308 309 304 302 309 320 324 316 316 316 315 317 323 328 335 341 340 333 332 332 331 332 332 333 334 334 335 337 340 340 333 329 329 323 319 315 313 317 317 318 320 320 318 313 312 314 312 312
260 261 272 278 275 270 266 269 271 272 274 276 276 277 280 283 287 287 288 291 295 305 314 313 308 293 285 298 306 293 297 294 264 266 297 327 321 311 314 314 300 308 313 313 314 309 310 312 312 316 323 327 332 336 334 327 326 327 326 327 327 328 329 329 330 333 337 337 329 326 328 322 318 314 311 314 315 316 317 316 317 314 312 314 313 312
276 287 298 298 294 284 269 261 264 270 278 284 288 288 281 281 283 283 284 284 288 300 310 314 299 272 280 316 321 298 283 258 250 263 301 320 317 308 306 323 325 327 324 310 310 306 305 307 304 310 324 326 328 332 329 322 320 322 323 322 322 323 324 325 326 328 333 334 326 323 327 322 318 314 310 313 314 315 316 314 316 316 314 313 313 311
253 279 299 292 288 288 278 268 261 258 260 261 277 288 286 280 272 270 272 270 274 277 279 295 288 276 297 312 294 261 247 250 255 266 288 304 314 304 299 354 12 354 340 318 314 311 308 304 293 302 330 329 327 329 324 317 316 318 318 318 318 318 319 321 322 324 329 331 323 318 323 322 318 313 310 312 315 316 315 313 315 316 313 311 311 309
241 226 244 247 246 262 270 274 273 266 260 251 241 256 274 283 278 271 271 268 270 269 264 271 283 298 320 309 280 258 253 262 268 276 292 300 302 301 321 21 17 350 340 326 318 315 313 309 302 311 332 332 327 325 319 315 313 313 313 313 314 315 315 317 318 320 323 326 321 313 316 320 317 313 310 310 314 316 313 311 313 315 311 309 308 307
254 246 256 258 258 265 262 264 275 279 275 263 248 251 264 272 276 278 279 280 282 281 280 283 286 295 290 253 259 271 272 277 281 288 306 307 297 320 341 13 11 344 334 325 315 313 313 315 316 319 326 328 323 317 313 310 308 308 309 310 311 312 312 313 314 315 317 320 319 310 309 315 316 313 309 308 312 313 312 311 312 313 310 307 306 305
231 226 235 251 258 273 274 269 277 284 271 245 234 245 261 265 274 279 279 278 276 275 275 281 287 288 270 261 271 275 274 283 301 308 321 316 303 319 329 340 347 330 323 318 311 312 314 319 323 321 320 319 313 308 306 306 306 306 307 307 308 308 309 309 309 310 312 314 315 309 304 309 312 312 309 307 310 312 312 312 311 310 308 306 304 303
225 218 224 253 251 258 279 287 290 284 268 240 218 214 232 247 256 276 291 291 278 279 276 270 270 266 254 249 260 271 280 304 324 319 318 301 294 313 330 328 324 316 316 312 309 312 317 322 325 320 317 313 308 305 305 304 304 304 304 304 304 302 303 304 304 306 307 308 310 306 301 304 308 310 309 306 308 311 313 311 309 308 307 305 303 301
228 229 223 243 259 258 287 304 305 277 264 248 224 220 227 231 220 230 266 281 285 296 291 280 270 259 250 243 255 276 295 306 311 310 297 286 297 316 322 318 319 316 313 310 311 314 318 322 322 320 319 317 312 309 306 304 302 301 301 300 300 298 298 300 301 302 301 301 304 301 297 300 304 307 307 304 306 310 311 310 309 308 306 304 301 299
230 238 225 216 254 293 323 315 315 276 261 288 273 250 241 237 231 228 231 240 258 276 275 275 270 260 257 264 273 284 291 291 296 294 280 285 305 317 315 314 313 309 307 307 308 311 315 318 317 318 320 319 315 311 306 302 299 298 296 294 293 293 293 293 295 298 296 295 297 295 293 296 301 304 306 303 304 308 310 310 308 307 305 302 300 299
223 225 215 204 234 303 325 305 302 119 180 275 295 290 271 242 236 247 252 245 250 258 262 273 276 272 272 275 277 279 280 283 284 277 278 293 307 312 314 312 305 303 302 301 302 306 310 312 314 316 317 314 312 309 304 300 296 293 291 289 288 287 286 287 289 290 288 286 287 287 288 293 300 307 306 303 305 309 310 310 307 305 303 300 300 301
225 216 214 197 195 239 290 270 248 188 191 207 230 267 276 258 229 230 256 270 266 268 276 278 275 275 277 277 276 277 278 282 281 273 281 295 297 302 308 308 305 303 300 299 301 303 304 307 310 311 311 309 307 305 302 300 297 296 293 291 289 286 284 287 288 284 280 279 280 281 288 295 304 309 307 304 308 310 309 307 305 303 302 300 302 303
237 224 219 197 185 205 220 235 258 270 233 203 207 219 231 252 252 240 242 246 256 269 274 278 276 276 279 280 278 279 279 284 290 287 287 287 287 294 298 301 302 301 301 301 300 300 300 302 304 306 306 305 303 303 304 304 304 304 301 295 292 289 286 287 287 279 277 280 280 282 294 301 305 308 307 307 309 309 306 304 303 303 302 302 304 305
249 245 230 204 192 207 211 236 270 287 292 238 221 225 225 225 232 247 257 256 267 274 268 274 282 280 282 284 287 291 292 294 299 298 290 282 282 286 288 292 296 296 297 298 297 296 296 297 301 304 304 303 304 305 307 307 308 310 306 301 300 295 284 280 282 274 274 281 281 287 299 302 303 305 307 307 307 305 303 302 303 303 303 304 305 305
211 222 234 208 189 210 225 226 237 259 300 295 251 267 277 271 236 231 249 258 270 284 276 268 274 276 278 283 288 295 297 295 295 290 288 287 286 285 284 286 290 291 292 294 294 293 294 298 302 303 304 307 309 309 308 307 306 305 303 305 308 297 280 275 278 267 261 272 282 293 299 300 302 305 307 307 306 304 304 303 304 302 303 305 306 305
199 200 222 201 178 196 228 236 228 212 235 289 306 248 245 275 273 242 234 239 249 277 283 272 271 275 278 281 284 288 290 288 282 277 282 288 287 285 286 286 288 290 291 291 292 294 297 301 302 303 306 309 310 309 307 305 305 305 305 310 311 296 284 280 274 259 256 275 287 294 297 298 304 307 309 308 306 305 305 304 303 301 302 305 306 306
212 203 210 197 187 196 207 233 246 226 205 238 273 243 218 248 275 257 234 236 245 266 279 275 274 276 279 283 287 290 291 288 285 283 284 284 284 285 288 290 289 290 291 291 294 298 300 301 301 303 306 309 311 310 307 307 309 311 313 313 310 303 294 280 268 261 266 280 289 291 292 297 305 308 310 308 306 306 305 302 299 299 302 305 307 307
221 208 198 195 214 225 212 213 265 272 241 221 228 264 256 253 281 285 270 264 267 272 272 271 272 276 278 281 285 289 291 290 288 287 286 286 288 289 289 289 289 289 291 294 297 298 298 299 301 305 309 313 314 311 309 311 311 312 313 310 308 309 297 270 264 268 272 282 288 286 289 298 306 309 309 307 306 306 303 299 297 298 303 307 308 308
217 213 203 199 219 236 225 220 249 250 237 239 256 268 251 236 247 259 262 275 275 261 262 266 269 273 277 280 287 293 294 293 293 292 291 291 291 288 284 282 284 286 289 295 296 295 297 300 303 309 313 315 315 314 313 313 311 312 314 312 309 308 291 265 264 270 274 285 287 284 292 302 307 309 308 306 306 304 300 297 298 302 307 309 309 308
213 212 206 198 213 242 238 227 238 242 232 233 251 263 259 254 254 238 231 246 249 242 249 258 265 272 279 285 292 296 296 297 300 301 298 292 286 280 275 270 271 278 283 289 291 294 301 305 306 311 313 314 315 315 314 315 315 316 317 315 311 306 293 271 264 269 281 289 287 289 299 304 305 306 306 307 305 302 299 298 301 306 309 310 310 308
216 205 195 195 213 239 247 242 239 248 252 241 246 260 259 256 254 240 233 244 253 252 256 263 271 281 288 292 292 293 296 300 302 300 299 295 285 278 274 269 266 274 283 288 293 300 307 308 308 311 312 313 315 315 317 319 319 320 321 318 312 306 296 277 268 275 288 290 289 295 300 300 303 306 306 307 304 301 301 301 305 309 310 310 310 308
213 209 199 205 213 206 220 242 237 239 249 245 242 245 244 247 260 259 250 252 255 256 263 279 302 303 295 290 288 291 296 299 300 302 308 308 299 291 292 298 304 302 295 294 301 308 310 309 310 312 313 314 315 317 321 322 322 326 329 325 316 306 296 282 273 276 285 289 291 295 297 300 305 307 307 306 304 303 304 306 308 310 310 310 309 307
208 210 203 214 219 198 202 231 234 236 240 243 248 246 235 231 242 257 260 258 258 261 268 284 307 303 294 291 292 296 297 296 301 310 315 313 303 294 297 306 316 313 304 304 310 313 311 310 313 314 313 315 317 320 324 324 325 331 336 332 324 313 303 288 275 276 287 293 295 297 301 305 307 307 307 306 306 307 308 308 310 310 311 311 309 306
211 208 204 212 220 225 232 232 236 243 237 234 249 267 253 245 244 247 256 261 269 280 284 286 296 296 292 293 298 301 299 300 308 314 311 306 299 296 303 311 314 309 306 311 314 313 310 311 315 316 315 316 319 323 326 326 325 330 337 338 332 329 326 304 284 295 301 299 299 300 304 308 309 309 309 310 310 310 308 309 310 311 311 310 306 304
215 213 213 221 225 231 238 238 242 247 243 234 229 246 268 276 265 259 264 269 278 285 286 293 301 293 289 292 297 301 302 307 311 307 301 301 299 301 309 310 305 306 309 312 312 310 309 312 314 316 317 318 322 325 327 327 327 330 337 340 340 346 354 339 312 309 303 299 301 304 308 311 312 313 314 313 311 308 308 310 311 311 310 307 304 304
215 217 216 222 227 227 229 235 243 245 245 243 244 255 265 264 252 260 271 277 284 288 293 300 293 283 284 288 292 298 302 305 310 309 307 305 300 302 309 304 299 307 314 310 309 309 308 311 315 318 318 319 324 327 326 327 330 334 340 345 344 345 346 337 323 310 303 305 308 311 314 315 316 318 316 311 308 308 310 311 311 311 308 305 304 305
216 218 214 218 227 228 226 229 243 256 260 256 251 255 260 256 259 276 282 282 286 294 302 305 294 290 294 297 302 306 304 305 311 312 306 300 298 306 314 303 299 309 318 309 306 306 307 311 316 317 318 321 325 327 327 328 333 338 343 345 342 342 338 330 321 313 311 314 313 315 318 318 317 316 311 307 308 310 311 311 310 309 307 305 306 308
217 218 214 215 220 229 234 231 238 257 265 264 258 257 261 265 268 272 279 285 296 305 307 303 298 301 306 309 311 310 309 310 308 300 294 297 303 310 308 299 299 312 320 309 304 305 306 310 314 315 318 322 326 328 328 330 335 339 341 340 336 335 328 319 318 319 318 316 316 317 318 316 313 310 309 310 311 311 311 310 310 310 308 308 310 312
221 224 224 224 220 220 231 237 243 253 258 257 259 266 268 267 267 269 279 289 298 307 309 307 309 314 314 308 308 311 313 310 301 298 304 309 308 306 303 302 308 319 319 310 306 305 305 308 312 315 319 323 326 327 328 330 333 335 335 333 330 327 322 320 323 325 322 320 321 321 317 313 310 310 312 313 312 311 311 311 312 313 312 312 312 312
220 223 227 231 230 225 230 237 243 252 259 259 256 249 251 265 274 273 274 279 284 296 307 308 310 314 312 307 309 312 311 307 304 307 311 310 307 307 310 315 320 321 315 309 307 307 305 306 310 315 320 324 324 326 327 328 330 332 330 330 329 325 323 324 325 325 323 321 322 320 316 314 314 315 315 313 312 312 312 313 315 316 315 314 312 310
217 221 225 228 227 227 233 239 242 250 256 257 252 246 253 268 275 267 266 275 280 285 299 308 311 313 311 307 307 304 302 306 311 309 306 309 315 317 317 319 319 315 310 307 308 307 304 305 311 316 320 322 321 324 327 327 329 331 330 331 330 325 323 325 325 324 323 323 323 321 320 319 319 318 316 314 315 315 315 316 318 317 315 313 310 308
217 218 225 231 229 224 228 233 237 245 250 252 254 257 264 271 271 268 278 286 286 288 298 306 310 313 307 301 299 299 301 307 312 308 306 310 315 313 313 318 318 313 309 307 307 304 301 304 312 315 316 319 320 322 327 330 332 333 331 331 330 326 326 327 328 328 328 329 328 326 324 324 322 320 320 319 318 317 316 317 317 316 313 310 308 305
224 221 223 231 233 228 229 232 233 237 244 250 255 257 262 270 273 277 284 284 286 299 306 305 304 306 304 298 294 295 300 305 309 308 306 310 316 318 319 321 319 312 307 305 303 300 300 307 312 312 313 315 317 322 328 332 333 331 330 331 331 331 331 329 329 331 332 331 331 329 327 324 322 322 322 320 318 317 316 317 316 313 310 307 306 303
223 225 221 221 226 226 227 232 235 238 242 251 256 256 257 261 265 272 278 283 297 313 314 310 308 304 299 297 293 293 299 303 304 304 306 315 324 325 320 317 315 309 302 297 295 295 299 307 310 310 310 311 315 322 326 328 329 329 328 330 331 332 332 330 329 329 330 330 328 325 322 320 320 321 320 319 318 318 317 316 314 310 307 306 305 303
218 226 225 221 226 229 229 232 238 243 244 248 254 256 256 255 255 258 267 285 309 316 311 310 309 305 303 303 302 305 309 309 307 308 314 324 327 322 314 310 308 301 290 282 281 287 294 301 305 306 307 311 317 321 320 320 322 323 322 324 327 328 329 327 325 324 324 323 320 317 318 319 320 321 320 319 319 320 319 317 313 311 310 310 309 308
219 225 226 224 224 229 234 235 237 242 245 247 251 256 259 261 261 264 274 292 306 304 304 309 308 305 309 312 310 312 313 312 313 317 323 328 325 316 308 302 297 288 280 274 275 282 288 291 295 301 307 311 312 310 309 310 311 312 318 325 327 328 328 327 326 323 321 322 322 324 326 326 326 327 326 326 326 325 324 322 320 319 319 318 317 316
224 225 228 229 227 229 237 240 237 239 245 251 256 263 268 269 269 275 285 292 296 298 304 310 310 307 312 315 313 310 311 313 317 321 324 325 320 310 300 292 285 274 268 268 274 279 278 275 286 299 305 300 296 296 298 301 307 319 333 337 336 336 337 338 339 337 334 334 337 339 338 336 336 336 335 335 335 334 332 330 329 329 329 329 328 326
223 225 228 231 229 227 237 245 246 246 249 251 255 262 268 270 272 278 283 287 295 305 307 308 309 310 313 314 309 304 305 311 316 319 322 323 316 305 291 279 270 263 262 269 276 275 269 272 284 292 288 277 279 286 290 302 327 338 342 345 346 347 348 349 350 348 346 346 346 346 346 344 343 343 343 342 343 342 340 338 337 337 338 339 339 339
219 220 226 232 230 230 241 249 250 249 248 246 250 256 260 264 271 279 287 293 301 309 308 304 303 305 307 307 303 300 303 313 317 317 319 316 304 290 278 266 260 260 265 271 270 263 268 281 281 269 263 266 272 275 280 314 339 342 344 348 350 350 352 354 354 351 350 350 348 347 348 347 346 346 347 346 346 347 346 344 344 346 346 347 349 351
227 226 226 229 227 229 239 244 246 251 255 255 255 257 260 266 274 280 290 301 304 305 303 299 296 296 297 296 296 298 304 314 314 310 309 303 290 282 276 266 259 258 263 266 259 252 261 271 265 253 252 255 249 245 280 330 341 343 346 349 349 350 351 352 351 349 348 349 347 346 348 347 345 344 345 347 349 349 348 349 349 349 350 352 353 354
Height
5944 5945 5946 5946 5946 5948 5949 5952 5955 5956 5956 5957 5955 5952 5952 5952 5952 5950 5946 5945 5944 5944 5944 5943 5942 5941 5939 5935 5932 5932 5934 5932 5930 5929 5929 5928 5927 5930 5931 5927 5925 5924 5924 5922 5921 5923 5924 5924 5923 5923 5923 5922 5922 5921 5921 5919 5918 5916 5915 5914 5913 5911 5910 5908 5907 5906 5905 5904 5903 5902 5901 5900 5898 5897 5896 5895 5894 5894 5893 5892 5891 5890 5889 5887 5887 5886
5942 5943 5945 5946 5946 5947 5948 5950 5951 5952 5954 5955 5952 5951 5951 5952 5953 5953 5949 5947 5946 5946 5945 5943 5943 5942 5941 5937 5932 5932 5932 5931 5931 5928 5926 5925 5925 5928 5930 5927 5925 5924 5924 5922 5920 5921 5923 5924 5924 5923 5922 5922 5921 5921 5920 5919 5917 5916 5915 5914 5912 5910 5909 5908 5907 5906 5905 5904 5903 5901 5900 5899 5897 5896 5895 5894 5894 5893 5892 5891 5890 5889 5887 5886 5885 5884
5941 5943 5944 5945 5945 5945 5946 5947 5947 5949 5950 5951 5949 5949 5951 5951 5952 5952 5951 5949 5947 5947 5946 5943 5942 5941 5941 5937 5931 5929 5931 5932 5932 5930 5927 5924 5922 5924 5927 5927 5926 5925 5923 5922 5920 5919 5921 5923 5924 5923 5922 5921 5920 5920 5920 5918 5917 5915 5914 5913 5911 5910 5909 5908 5906 5905 5904 5903 5902 5900 5899 5898 5896 5895 5894 5894 5893 5892 5891 5890 5889 5888 5886 5885 5884 5883
5940 5942 5943 5944 5945 5945 5946 5947 5947 5948 5949 5948 5948 5948 5949 5951 5952 5952 5952 5950 5948 5946 5944 5943 5943 5942 5941 5938 5931 5925 5927 5931 5932 5930 5928 5926 5922 5920 5923 5926 5927 5925 5922 5921 5919 5918 5919 5921 5924 5924 5922 5921 5920 5919 5918 5917 5916 5914 5913 5912 5911 5910 5909 5907 5906 5905 5904 5902 5901 5899 5897 5896 5895 5894 5894 5893 5892 5891 5890 5888 5887 5886 5885 5884 5882 5882
5940 5941 5942 5943 5945 5945 5946 5946 5946 5947 5947 5947 5947 5948 5949 5950 5950 5951 5951 5951 5949 5947 5946 5944 5943 5943 5940 5939 5934 5926 5926 5930 5930 5929 5926 5926 5923 5920 5921 5926 5928 5925 5921 5920 5919 5917 5917 5919 5921 5923 5922 5921 5919 5919 5918 5916 5915 5914 5913 5912 5911 5910 5908 5907 5906 5904 5903 5901 5899 5897 5896 5894 5894 5893 5893 5892 5891 5890 5888 5887 5886 5885 5884 5883 5881 5880
5939 5940 5940 5941 5943 5943 5943 5943 5944 5944 5945 5945 5946 5947 5947 5948 5947 5948 5949 5949 5948 5948 5948 5944 5942 5941 5939 5938 5935 5928 5926 5927 5928 5927 5925 5923 5923 5920 5921 5924 5927 5925 5921 5920 5919 5916 5914 5916 5918 5920 5921 5921 5919 5919 5918 5916 5915 5914 5912 5911 5910 5909 5908 5906 5905 5903 5902 5900 5898 5896 5894 5893 5892 5892 5891 5891 5889 5888 5887 5886 5885 5884 5883 5882 5881 5880
5938 5939 5939 5939 5940 5941 5941 5942 5943 5943 5942 5943 5944 5944 5945 5945 5945 5946 5947 5947 5947 5946 5946 5943 5941 5940 5939 5939 5936 5930 5926 5925 5925 5926 5925 5923 5921 5920 5921 5921 5923 5923 5922 5920 5918 5915 5913 5913 5915 5917 5919 5919 5918 5918 5917 5915 5914 5913 5912 5910 5909 5908 5906 5905 5904 5902 5901 5899 5897 5895 5894 5892 5891 5890 5890 5889 5888 5887 5886 5885 5884 5883 5882 5881 5880 5879
5937 5937 5938 5938 5939 5939 5940 5942 5942 5941 5941 5941 5942 5942 5942 5942 5943 5943 5943 5943 5942 5942 5942 5942 5942 5940 5939 5939 5936 5932 5929 5925 5923 5922 5921 5921 5919 5918 5920 5919 5919 5920 5920 5919 5917 5915 5913 5913 5913 5915 5916 5917 5917 5916 5915 5914 5913 5911 5910 5909 5908 5907 5905 5904 5903 5901 5900 5898 5896 5894 5893 5892 5890 5889 5888 5888 5887 5886 5885 5884 5883 5882 5881 5880 5878 5877
5936 5936 5937 5937 5937 5938 5939 5940 5940 5939 5939 5940 5940 5940 5939 5940 5940 5940 5939 5939 5939 5939 5939 5940 5941 5939 5937 5937 5935 5933 5930 5926 5924 5921 5916 5915 5917 5918 5919 5918 5917 5917 5918 5917 5916 5915 5914 5913 5913 5913 5914 5915 5915 5915 5914 5912 5911 5910 5909 5908 5907 5906 5904 5903 5902 5900 5899 5897 5895 5893 5892 5891 5889 5888 5887 5886 5885 5884 5884 5883 5882 5880 5879 5878 5877 5876
5934 5934 5935 5935 5936 5937 5937 5937 5937 5937 5938 5938 5938 5938 5937 5937 5938 5938 5938 5938 5937 5936 5935 5937 5938 5937 5936 5937 5935 5933 5930 5926 5925 5922 5917 5913 5914 5917 5919 5918 5917 5916 5916 5915 5914 5915 5915 5914 5913 5913 5913 5914 5914 5913 5912 5911 5910 5909 5908 5907 5906 5905 5903 5902 5901 5899 5898 5896 5894 5892 5891 5890 5888 5887 5886 5885 5884 5883 5882 5881 5880 5879 5878 5877 5876 5875
5933 5931 5931 5933 5935 5935 5934 5935 5935 5936 5936 5936 5936 5936 5936 5936 5936 5936 5936 5936 5935 5934 5934 5935 5936 5936 5936 5936 5935 5934 5930 5927 5925 5923 5918 5915 5915 5917 5918 5917 5916 5915 5914 5914 5913 5913 5915 5915 5915 5913 5913 5912 5912 5912 5911 5910 5909 5908 5907 5906 5905 5904 5902 5901 5899 5898 5896 5894 5893 5891 5890 5888 5887 5886 5885 5884 5882 5881 5881 5880 5879 5878 5877 5875 5874 5874
5931 5929 5929 5931 5933 5933 5933 5933 5933 5934 5934 5935 5935 5935 5935 5935 5935 5935 5935 5935 5933 5933 5933 5934 5935 5936 5935 5935 5934 5932 5929 5927 5926 5921 5916 5916 5914 5914 5916 5916 5915 5915 5914 5913 5912 5912 5913 5914 5914 5913 5912 5911 5910 5910 5909 5909 5908 5907 5906 5905 5904 5902 5901 5899 5898 5896 5895 5893 5891 5890 5889 5887 5886 5885 5883 5883 5881 5880 5880 5879 5878 5876 5875 5874 5873 5872
5928 5928 5929 5930 5930 5930 5931 5931 5931 5932 5933 5933 5933 5934 5933 5933 5934 5934 5935 5935 5934 5933 5934 5934 5935 5936 5934 5933 5931 5930 5927 5924 5922 5918 5916 5916 5911 5909 5913 5914 5913 5914 5912 5912 5912 5911 5911 5912 5912 5912 5910 5909 5908 5908 5908 5907 5907 5906 5905 5904 5902 5901 5899 5898 5896 5895 5893 5891 5889 5888 5887 5886 5885 5883 5882 5881 5880 5879 5878 5877 5876 5875 5873 5872 5871 5871
5928 5928 5928 5929 5928 5926 5926 5929 5930 5930 5931 5931 5932 5932 5932 5933 5934 5934 5935 5936 5935 5936 5937 5936 5936 5934 5932 5931 5930 5928 5924 5919 5918 5918 5918 5918 5913 5909 5912 5914 5912 5912 5911 5911 5911 5910 5910 5910 5910 5909 5908 5906 5906 5906 5907 5906 5905 5904 5903 5902 5900 5899 5898 5897 5895 5893 5892 5890 5888 5887 5885 5884 5883 5882 5881 5880 5879 5878 5877 5875 5874 5873 5871 5871 5870 5869
5928 5930 5929 5928 5928 5924 5922 5924 5927 5929 5930 5931 5932 5931 5931 5932 5932 5933 5934 5934 5934 5935 5935 5935 5934 5932 5931 5930 5927 5923 5919 5916 5918 5920 5919 5918 5917 5913 5912 5912 5911 5911 5911 5911 5910 5910 5910 5909 5908 5907 5905 5904 5904 5904 5905 5904 5903 5902 5901 5900 5899 5897 5896 5895 5894 5892 5890 5889 5887 5886 5884 5882 5881 5880 5879 5878 5877 5876 5875 5873 5872 5871 5870 5869 5868 5868
5925 5928 5928 5927 5927 5924 5923 5922 5923 5927 5929 5930 5931 5931 5931 5931 5930 5930 5930 5931 5931 5931 5931 5932 5932 5932 5932 5929 5923 5919 5916 5916 5919 5921 5919 5918 5917 5915 5913 5911 5911 5912 5912 5911 5910 5910 5910 5909 5908 5906 5904 5903 5902 5902 5903 5902 5901 5900 5899 5898 5897 5895 5894 5893 5892 5891 5889 5888 5886 5885 5883 5881 5880 5879 5877 5876 5875 5874 5873 5871 5870 5869 5868 5867 5867 5866
5924 5927 5927 5926 5924 5923 5923 5922 5921 5923 5927 5927 5928 5929 5930 5930 5929 5929 5929 5929 5930 5930 5930 5931 5931 5932 5932 5929 5922 5918 5915 5916 5919 5920 5918 5917 5915 5914 5913 5912 5912 5912 5911 5911 5910 5910 5909 5907 5906 5904 5902 5902 5901 5901 5901 5900 5899 5898 5897 5895 5895 5893 5892 5891 5890 5889 5888 5886 5885 5883 5881 5879 5878 5877 5876 5874 5873 5872 5871 5870 5868 5868 5867 5866 5865 5864
5922 5924 5925 5924 5924 5921 5919 5920 5921 5921 5923 5924 5925 5928 5929 5928 5928 5928 5928 5928 5928 5929 5930 5931 5931 5931 5931 5926 5920 5916 5914 5916 5918 5918 5916 5916 5914 5912 5910 5910 5911 5911 5911 5910 5909 5908 5907 5905 5903 5901 5900 5900 5900 5899 5899 5898 5897 5896 5894 5893 5892 5891 5890 5889 5888 5887 5886 5885 5883 5882 5879 5878 5876 5875 5874 5872 5871 5870 5869 5868 5867 5866 5865 5864 5864 5863
5918 5921 5923 5922 5923 5922 5917 5918 5920 5919 5919 5921 5923 5924 5925 5926 5927 5926 5926 5927 5927 5928 5928 5929 5930 5929 5928 5923 5915 5912 5914 5916 5917 5916 5916 5915 5913 5912 5910 5909 5909 5910 5910 5909 5907 5906 5905 5903 5902 5900 5899 5899 5899 5898 5897 5896 5895 5894 5892 5890 5889 5887 5887 5886 5885 5885 5884 5882 5881 5880 5878 5876 5874 5872 5871 5870 5869 5868 5867 5866 5865 5864 5864 5863 5862 5861
5915 5916 5920 5921 5921 5921 5919 5917 5917 5917 5918 5919 5920 5921 5921 5923 5925 5925 5926 5926 5927 5927 5927 5928 5928 5924 5923 5919 5914 5912 5915 5916 5916 5916 5915 5914 5913 5911 5910 5909 5909 5908 5908 5907 5906 5904 5903 5902 5901 5900 5899 5898 5897 5896 5895 5893 5891 5890 5888 5887 5885 5883 5883 5883 5882 5882 5881 5880 5879 5878 5876 5874 5872 5870 5869 5868 5868 5867 5866 5865 5864 5863 5862 5861 5860 5860
5913 5913 5918 5921 5920 5919 5919 5917 5916 5916 5917 5918 5919 5919 5920 5921 5922 5923 5924 5924 5925 5926 5926 5927 5924 5918 5917 5918 5916 5915 5916 5915 5915 5915 5913 5912 5911 5910 5909 5908 5908 5907 5907 5905 5904 5903 5902 5901 5900 5899 5898 5897 5895 5894 5893 5890 5888 5886 5885 5882 5880 5879 5878 5878 5879 5878 5878 5877 5876 5875 5873 5871 5870 5868 5867 5866 5866 5865 5864 5863 5862 5861 5860 5859 5859 5858
5912 5913 5915 5918 5919 5920 5919 5917 5915 5916 5918 5920 5920 5919 5918 5920 5921 5922 5922 5923 5923 5923 5924 5925 5920 5914 5915 5917 5916 5915 5914 5914 5914 5913 5911 5910 5909 5908 5908 5907 5906 5906 5905 5904 5903 5902 5900 5899 5898 5897 5896 5894 5893 5891 5889 5887 5884 5881 5879 5877 5875 5874 5872 5872 5874 5874 5873 5872 5872 5872 5871 5869 5868 5866 5865 5865 5864 5863 5862 5861 5860 5859 5859 5858 5857 5856
5909 5911 5913 5914 5916 5919 5920 5917 5914 5915 5917 5918 5920 5920 5918 5918 5920 5921 5923 5924 5923 5924 5926 5925 5917 5912 5913 5915 5914 5913 5912 5912 5911 5910 5909 5907 5906 5906 5905 5905 5904 5903 5903 5902 5901 5900 5899 5897 5897 5896 5894 5892 5890 5888 5886 5883 5880 5877 5876 5874 5872 5870 5868 5868 5869 5869 5868 5867 5867 5870 5870 5868 5865 5863 5863 5863 5862 5861 5860 5860 5859 5858 5857 5856 5855 5854
5908 5909 5910 5912 5913 5915 5917 5916 5914 5914 5915 5915 5916 5918 5918 5919 5919 5920 5921 5923 5922 5923 5925 5923 5915 5910 5910 5910 5909 5910 5910 5909 5909 5907 5906 5905 5904 5904 5903 5902 5902 5901 5900 5899 5898 5897 5896 5895 5894 5893 5892 5890 5887 5885 5883 5881 5878 5876 5874 5871 5868 5865 5864 5865 5866 5866 5865 5864 5866 5868 5868 5866 5863 5862 5861 5861 5860 5860 5859 5858 5857 5856 5855 5854 5853 5852
5907 5908 5909 5910 5911 5913 5915 5917 5916 5914 5914 5914 5915 5916 5916 5918 5919 5920 5920 5921 5921 5920 5920 5919 5912 5906 5906 5905 5905 5907 5907 5906 5905 5904 5903 5903 5902 5901 5900 5900 5899 5898 5898 5897 5896 5895 5894 5893 5892 5890 5889 5888 5886 5884 5881 5878 5876 5873 5870 5867 5864 5861 5860 5861 5862 5862 5862 5863 5864 5865 5865 5864 5862 5861 5860 5859 5859 5858 5857 5856 5855 5854 5853 5852 5851 5850
5905 5907 5907 5908 5911 5914 5916 5916 5916 5915 5915 5914 5914 5915 5915 5915 5917 5919 5919 5920 5920 5919 5917 5915 5909 5904 5904 5904 5905 5906 5905 5904 5903 5902 5901 5901 5900 5899 5898 5897 5896 5895 5895 5894 5893 5892 5891 5890 5889 5888 5887 5886 5884 5882 5879 5875 5871 5868 5866 5865 5863 5857 5855 5858 5859 5858 5859 5861 5862 5863 5862 5861 5860 5859 5858 5857 5857 5856 5855 5854 5853 5852 5851 5850 5849 5848
5903 5905 5905 5906 5908 5911 5913 5914 5913 5914 5916 5916 5916 5917 5917 5917 5917 5916 5917 5918 5919 5918 5915 5912 5907 5903 5903 5904 5905 5905 5905 5903 5902 5900 5899 5898 5897 5896 5895 5894 5893 5893 5892 5891 5890 5889 5889 5888 5887 5886 5885 5884 5882 5879 5876 5872 5867 5864 5863 5864 5863 5857 5854 5856 5857 5856 5858 5859 5860 5860 5860 5859 5857 5857 5856 5855 5854 5854 5853 5852 5851 5850 5850 5849 5848 5847
5901 5902 5903 5906 5907 5908 5910 5913 5913 5913 5914 5916 5917 5917 5917 5917 5915 5914 5915 5916 5917 5917 5913 5907 5903 5901 5900 5901 5903 5903 5902 5901 5899 5898 5896 5895 5893 5893 5892 5891 5891 5890 5889 5888 5887 5887 5886 5885 5884 5883 5882 5881 5879 5876 5873 5870 5866 5864 5864 5863 5862 5858 5855 5855 5855 5856 5857 5857 5857 5858 5857 5856 5855 5854 5854 5853 5852 5852 5851 5850 5850 5849 5848 5847 5846 5845
5900 5900 5902 5904 5907 5908 5909 5911 5914 5914 5914 5914 5915 5915 5916 5915 5914 5914 5915 5915 5915 5915 5909 5901 5899 5900 5899 5899 5901 5901 5900 5898 5896 5895 5893 5892 5890 5889 5889 5888 5888 5887 5886 5886 5885 5884 5883 5882 5881 5880 5879 5878 5876 5874 5871 5867 5864 5863 5862 5860 5858 5855 5853 5853 5854 5855 5855 5855 5855 5855 5855 5854 5853 5852 5851 5851 5850 5850 5849 5849 5848 5847 5846 5845 5844 5843
5899 5899 5900 5902 5905 5907 5907 5910 5914 5915 5913 5914 5914 5913 5913 5914 5914 5914 5914 5914 5914 5911 5902 5896 5898 5899 5898 5898 5899 5898 5897 5896 5894 5892 5890 5889 5888 5886 5885 5885 5884 5883 5883 5883 5882 5881 5880 5880 5879 5878 5877 5875 5873 5871 5869 5865 5861 5860 5859 5857 5855 5852 5851 5851 5852 5852 5853 5853 5853 5853 5852 5852 5851 5850 5850 5849 5849 5848 5848 5847 5847 5846 5845 5843 5842 5842
5897 5898 5900 5900 5902 5905 5906 5909 5913 5912 5911 5912 5912 5912 5912 5912 5912 5911 5912 5911 5909 5904 5896 5894 5896 5896 5896 5898 5897 5895 5894 5893 5891 5890 5888 5886 5884 5881 5879 5878 5879 5880 5880 5880 5879 5878 5878 5877 5876 5875 5874 5872 5870 5868 5866 5863 5859 5858 5856 5854 5853 5851 5849 5849 5850 5850 5851 5851 5851 5851 5850 5850 5849 5848 5848 5847 5847 5846 5846 5846 5845 5844 5843 5842 5841 5840
5896 5897 5898 5899 5901 5904 5907 5909 5911 5910 5909 5909 5911 5912 5910 5909 5908 5907 5907 5907 5904 5899 5894 5894 5896 5896 5895 5895 5894 5893 5892 5890 5889 5887 5886 5884 5881 5878 5876 5875 5876 5878 5877 5877 5876 5876 5875 5875 5874 5873 5871 5870 5868 5866 5864 5861 5857 5855 5853 5850 5849 5849 5848 5847 5848 5848 5849 5849 5849 5849 5849 5848 5848 5847 5846 5846 5845 5845 5845 5844 5843 5843 5842 5840 5839 5838
5895 5896 5897 5898 5899 5902 5906 5909 5909 5908 5908 5908 5909 5908 5906 5905 5904 5903 5904 5903 5899 5895 5894 5894 5895 5895 5894 5892 5891 5891 5889 5887 5886 5885 5884 5882 5880 5879 5878 5877 5876 5876 5875 5874 5874 5873 5873 5872 5871 5870 5869 5867 5865 5864 5862 5859 5856 5853 5851 5848 5847 5847 5846 5846 5846 5847 5847 5848 5848 5848 5847 5847 5846 5845 5845 5844 5844 5843 5843 5843 5842 5841 5840 5839 5837 5836
5893 5895 5896 5898 5899 5901 5905 5906 5905 5905 5905 5904 5903 5901 5901 5902 5901 5901 5901 5898 5893 5891 5893 5895 5895 5893 5891 5889 5889 5889 5887 5885 5885 5884 5883 5881 5879 5878 5877 5875 5873 5873 5873 5872 5872 5871 5870 5869 5869 5868 5866 5864 5863 5861 5859 5857 5855 5853 5850 5848 5847 5846 5844 5844 5845 5845 5846 5846 5846 5846 5846 5845 5844 5844 5843 5843 5842 5842 5842 5841 5841 5839 5838 5837 5836 5834
5891 5893 5895 5896 5898 5901 5902 5902 5902 5901 5901 5901 5900 5899 5898 5898 5898 5898 5897 5895 5892 5890 5890 5892 5893 5891 5888 5886 5886 5886 5885 5884 5883 5882 5881 5880 5877 5876 5875 5873 5871 5872 5871 5869 5869 5869 5868 5867 5867 5865 5864 5862 5860 5859 5857 5855 5853 5852 5850 5848 5847 5845 5843 5843 5844 5845 5845 5845 5845 5845 5844 5844 5843 5842 5842 5841 5841 5841 5840 5840 5839 5838 5836 5835 5834 5833
5890 5892 5894 5895 5897 5898 5900 5900 5899 5898 5898 5898 5899 5898 5896 5895 5896 5895 5894 5892 5891 5890 5888 5888 5890 5888 5885 5884 5883 5883 5883 5883 5882 5880 5879 5879 5878 5876 5874 5872 5871 5870 5868 5867 5867 5867 5866 5865 5864 5863 5862 5860 5858 5857 5855 5854 5852 5850 5849 5847 5846 5845 5844 5844 5844 5844 5844 5844 5844 5844 5843 5842 5842 5841 5840 5840 5840 5840 5839 5838 5837 5836 5835 5834 5833 5832
5888 5890 5891 5894 5895 5896 5897 5898 5896 5894 5894 5896 5896 5895 5894 5894 5894 5893 5891 5890 5889 5888 5888 5889 5888 5886 5884 5883 5882 5882 5881 5881 5880 5879 5878 5877 5876 5874 5872 5871 5870 5867 5865 5865 5865 5865 5864 5863 5862 5861 5860 5858 5857 5856 5854 5853 5851 5850 5848 5847 5846 5845 5844 5844 5844 5844 5844 5844 5843 5842 5842 5841 5840 5840 5840 5840 5839 5839 5838 5837 5836 5834 5833 5832 5831 5830
5886 5888 5890 5892 5893 5894 5894 5895 5895 5892 5892 5893 5894 5893 5893 5892 5891 5891 5890 5889 5887 5886 5887 5888 5886 5884 5883 5882 5881 5880 5880 5879 5879 5878 5876 5874 5873 5872 5869 5868 5868 5866 5864 5863 5863 5863 5862 5861 5860 5859 5858 5857 5855 5854 5853 5852 5851 5849 5848 5846 5845 5845 5844 5844 5844 5844 5843 5843 5842 5841 5841 5840 5840 5839 5839 5839 5838 5837 5836 5835 5834 5833 5832 5831 5830 5828
5885 5886 5887 5889 5891 5892 5892 5892 5893 5892 5890 5891 5891 5891 5891 5890 5889 5889 5888 5887 5886 5885 5885 5884 5883 5882 5881 5881 5880 5879 5878 5878 5878 5876 5874 5873 5871 5870 5868 5867 5867 5866 5863 5861 5861 5861 5860 5860 5859 5858 5857 5856 5854 5853 5852 5851 5850 5848 5847 5846 5845 5845 5844 5844 5844 5843 5843 5842 5842 5841 5840 5840 5839 5839 5839 5838 5837 5836 5834 5833 5832 5831 5830 5829 5828 5827
5883 5885 5885 5886 5888 5889 5890 5891 5892 5890 5889 5889 5889 5890 5890 5888 5887 5887 5887 5886 5886 5884 5882 5880 5879 5879 5880 5879 5877 5877 5877 5876 5874 5872 5871 5871 5870 5868 5867 5866 5865 5862 5860 5859 5859 5859 5858 5858 5857 5857 5856 5855 5853 5852 5851 5850 5849 5848 5847 5846 5845 5845 5844 5844 5843 5843 5842 5841 5841 5840 5840 5839 5839 5838 5837 5836 5835 5834 5833 5831 5830 5829 5828 5827 5826 5826
5882 5883 5883 5884 5886 5887 5888 5889 5890 5889 5887 5887 5888 5889 5888 5886 5885 5885 5885 5884 5885 5884 5881 5878 5877 5878 5878 5875 5874 5874 5874 5873 5870 5868 5868 5869 5868 5866 5864 5863 5860 5859 5858 5857 5857 5857 5857 5856 5856 5855 5854 5853 5853 5852 5851 5850 5849 5848 5847 5846 5845 5844 5844 5843 5842 5842 5841 5841 5840 5840 5839 5839 5838 5837 5836 5835 5833 5832 5831 5830 5829 5828 5827 5826 5825 5825
5880 5881 5881 5882 5883 5885 5886 5887 5888 5887 5884 5883 5885 5886 5884 5883 5883 5882 5881 5880 5881 5882 5881 5878 5877 5877 5876 5874 5872 5871 5870 5870 5869 5867 5867 5867 5866 5863 5861 5859 5858 5857 5857 5856 5855 5856 5856 5855 5855 5854 5853 5852 5852 5851 5850 5849 5848 5848 5847 5846 5845 5844 5843 5842 5842 5841 5841 5840 5839 5839 5838 5837 5836 5835 5834 5833 5832 5831 5829 5828 5827 5826 5825 5825 5824 5824
5876 5878 5878 5879 5880 5882 5883 5884 5885 5882 5879 5881 5883 5883 5881 5881 5881 5881 5880 5878 5877 5877 5878 5878 5876 5875 5874 5872 5872 5870 5869 5868 5867 5866 5864 5863 5862 5861 5858 5856 5855 5855 5855 5854 5854 5854 5854 5854 5854 5852 5851 5851 5850 5850 5850 5849 5848 5847 5846 5845 5844 5843 5842 5841 5841 5840 5839 5839 5838 5837 5836 5835 5835 5834 5833 5831 5830 5829 5828 5827 5826 5825 5824 5824 5823 5823
5873 5874 5876 5877 5877 5879 5879 5879 5879 5877 5877 5879 5881 5880 5880 5880 5879 5879 5879 5876 5873 5873 5874 5874 5875 5874 5872 5870 5870 5869 5868 5866 5864 5862 5861 5859 5858 5857 5856 5854 5853 5853 5853 5853 5853 5852 5852 5852 5852 5851 5850 5850 5850 5849 5848 5848 5847 5846 5845 5844 5843 5842 5841 5841 5840 5839 5838 5837 5837 5836 5835 5834 5833 5832 5831 5830 5829 5828 5827 5826 5825 5824 5823 5823 5822 5822
5869 5870 5872 5873 5873 5874 5875 5875 5875 5876 5877 5878 5878 5878 5878 5878 5877 5877 5875 5872 5871 5871 5869 5868 5869 5871 5869 5867 5866 5866 5865 5863 5862 5860 5858 5857 5855 5854 5853 5852 5852 5852 5852 5852 5852 5851 5851 5851 5851 5850 5850 5849 5849 5848 5847 5846 5846 5845 5844 5843 5842 5842 5841 5840 5840 5839 5838 5837 5836 5835 5834 5833 5832 5831 5830 5829 5828 5827 5825 5825 5824 5823 5823 5822 5821 5820
5866 5866 5868 5870 5870 5871 5872 5873 5874 5875 5876 5877 5877 5876 5876 5874 5873 5873 5872 5870 5869 5869 5867 5865 5864 5865 5865 5863 5861 5860 5859 5858 5858 5856 5854 5853 5853 5852 5851 5851 5850 5850 5850 5850 5851 5851 5850 5850 5850 5850 5849 5848 5848 5847 5846 5845 5845 5844 5844 5843 5842 5842 5841 5840 5839 5838 5837 5836 5836 5835 5833 5832 5831 5830 5829 5828 5827 5826 5825 5824 5823 5822 5822 5821 5820 5819
5863 5863 5865 5867 5867 5868 5869 5870 5872 5872 5873 5875 5874 5873 5873 5871 5869 5869 5870 5869 5867 5866 5865 5864 5862 5861 5861 5861 5859 5857 5855 5854 5853 5851 5850 5850 5851 5850 5850 5849 5849 5849 5849 5849 5850 5850 5850 5850 5849 5849 5848 5848 5847 5846 5846 5845 5844 5844 5843 5843 5842 5841 5840 5840 5839 5838 5837 5836 5835 5834 5833 5832 5830 5830 5829 5827 5826 5825 5824 5823 5822 5821 5820 5819 5818 5817
5859 5860 5862 5863 5865 5867 5867 5866 5868 5870 5873 5874 5873 5872 5872 5870 5867 5867 5867 5866 5865 5864 5863 5863 5861 5859 5859 5859 5857 5855 5854 5852 5849 5847 5847 5848 5849 5848 5848 5848 5848 5848 5848 5848 5849 5849 5850 5849 5848 5848 5847 5847 5846 5846 5845 5844 5844 5843 5843 5842 5841 5840 5840 5839 5838 5837 5836 5835 5834 5833 5832 5831 5830 5829 5828 5827 5826 5825 5824 5823 5822 5820 5819 5818 5817 5816
5855 5857 5859 5860 5863 5866 5864 5862 5866 5870 5872 5872 5871 5870 5870 5868 5867 5867 5865 5862 5862 5863 5862 5861 5860 5857 5856 5856 5855 5854 5853 5850 5847 5845 5846 5847 5847 5847 5847 5847 5847 5847 5847 5847 5848 5848 5848 5848 5848 5847 5847 5846 5846 5845 5844 5844 5843 5842 5842 5841 5840 5839 5839 5838 5837 5836 5835 5834 5833 5832 5832 5831 5830 5828 5827 5826 5825 5824 5823 5822 5821 5820 5819 5817 5816 5815
5852 5855 5856 5857 5861 5864 5862 5861 5864 5866 5866 5867 5867 5866 5865 5864 5865 5865 5863 5860 5860 5861 5860 5859 5859 5857 5855 5855 5854 5852 5850 5847 5845 5845 5846 5847 5847 5847 5847 5847 5846 5845 5845 5846 5846 5847 5847 5847 5847 5846 5846 5845 5845 5844 5843 5843 5842 5842 5841 5840 5839 5838 5838 5837 5836 5835 5834 5833 5832 5832 5831 5830 5829 5828 5827 5826 5825 5824 5823 5822 5820 5819 5818 5817 5815 5814
5851 5853 5854 5856 5859 5860 5857 5857 5860 5862 5863 5863 5863 5861 5862 5862 5861 5861 5860 5858 5858 5859 5859 5857 5856 5855 5854 5852 5851 5849 5847 5845 5844 5845 5845 5845 5845 5845 5845 5845 5844 5844 5844 5845 5845 5846 5845 5845 5845 5845 5845 5844 5844 5843 5843 5842 5842 5841 5840 5839 5838 5838 5837 5836 5835 5834 5833 5833 5832 5831 5830 5829 5828 5827 5826 5825 5824 5823 5822 5821 5820 5819 5817 5816 5815 5814